Regional Weather Roundup
Issued by NWS Cleveland, OH

Home | Current Version | Previous Version | Graphics & Text | Print | Product List | Glossary On
Versions: 1 2 3 4 5 6 7 8 9 10 11 12 13 14 15 16 17 18 19 20 21 22 23 24 25 26 27 28 29 30 31 32 33 34 35 36 37 38 39 40 41 42 43 44 45 46 47 48 49 50
000
ASUS41 KCLE 281110
RWRCLE
OHIO REGIONAL WEATHER ROUNDUP
NATIONAL WEATHER SERVICE WILMINGTON, OH
700 AM EDT MON JUL 28 2014

NOTE: "FAIR" INDICATES FEW OR NO CLOUDS BELOW 12,000 FEET WITH NO
SIGNIFICANT WEATHER AND/OR OBSTRUCTIONS TO VISIBILITY.

OHZ001>008-015>018-024>027-034-035-043-044-281200-
   NORTHWEST OHIO

CITY           SKY/WX    TMP DP  RH WIND       PRES   REMARKS
DEFIANCE       CLOUDY    64  59  83 NW8       29.84R
FINDLAY        CLOUDY    62  59  90 W10       29.81R
TOLEDO EXPRESS CLOUDY    63  59  87 NW9       29.80R
TOLEDO METCALF CLOUDY    65  58  78 NW10      29.80R
LIMA           CLOUDY    62  59  90 W13       29.84R
$$

OHZ009>014-019>023-028>033-038-089-281200-
   NORTHEAST OHIO

CITY           SKY/WX    TMP DP  RH WIND       PRES   REMARKS
CLE-HOPKINS    LGT RAIN  63  61  93 W8        29.72S FOG
CLE-LAKEFRONT  LGT RAIN  67  61  81 W23       29.68R
CUY CO. ARPT   LGT RAIN  66  64  94 NW15G26   29.69  FOG
LORAIN-ELYRIA  RAIN      64  60  87 W12       29.73S FOG
ASHTABULA      LGT RAIN  62  60  93 W9        29.67R FOG
AKRON-CANTON   MOCLDY    62  58  86 W10       29.72S
WOOSTER        CLOUDY    61  58  90 W14       29.75R
MANSFIELD      CLOUDY    60  59  96 W8        29.78R
YOUNGSTOWN     CLOUDY    61  59  93 W9        29.69R
$$

OHZ042-051>053-060>062-070>072-077>081-281200-
  SOUTHWEST OHIO

CITY           SKY/WX    TMP DP  RH WIND       PRES   REMARKS
CINC-COVINGTON PTCLDY    63  57  81 W8        29.88R
CINC-LUNKEN    MOCLDY    64  58  80 W7        29.88R
HAMILTON       CLOUDY    64  60  87 W3        29.88R
DAYTON         CLOUDY    64  58  80 NW12      29.87R
WRIGHT-PAT AFB CLOUDY    64  59  84 NW10      29.85R
DAYTON GENERAL CLOUDY    64  58  80 W6        29.86R
WILMINGTON     CLOUDY    63  57  81 W8        29.86R
$$

OHZ036-037-039>041-045>050-054>059-063>069-073>076-082>088-281200-
  CENTRAL AND SOUTHEAST OHIO

CITY           SKY/WX    TMP DP  RH WIND       PRES   REMARKS
COLUMBUS       CLOUDY    65  58  78 NW13      29.81R
OSU AIRPORT    CLOUDY    63  58  83 NW10      29.82R
BOLTON FIELD   CLOUDY    62  59  91 W10       29.83R
RICKENBACK AFB CLOUDY    64  56  76 NW10      29.81R
NEWARK         CLOUDY    63  58  83 NW10      29.79R
MARION         CLOUDY    62  58  86 NW9       29.81R
LANCASTER      CLOUDY    63  58  83 VRB7      29.81R
ZANESVILLE     CLOUDY    64  59  83 W9        29.77R
NEW PHILLY     PTCLDY    62  58  86 NW6       29.75R
$$


USA.gov is the U.S. government's official web portal to all federal, state and local government web resources and services.